[[{"header":{"parameterUnit":"m.s-1","parameterCategory":2,"la1":30.2991,"la2":30.254,"lo1":-89.0895,"lo2":-89.0444,"dy":0.0017,"dx":0.0017,"nx":28,"ny":28,"refTime":"2025-05-28T21:00:00:Z","depth":"0","parameterNumber":2,"parameterNumberName":"U-component_of_CURRENTS"},"data":[0,0,0,0,0,0,0,0,0,0,0,0,0,0,0,0,0,0,0,0,0,0,0,0,0,0,0,0,0,0,0,0,0,0,0,0,0,0,0,0,0,0,0,0,0,0,0,0,0,0,0,0,0,0,0,0,0,0,0.1082,0.1083,0,0.1126,0.1126,0.1126,0.111,0.111,0.1109,0.1109,0.11,0.11,0.1101,0,0,0,0,0,0,0,0,0,0,0,0,0,0.096,0.0962,0.1082,0.1083,0.1084,0.1126,0.1126,0.1127,0.111,0.111,0.1109,0.1108,0.11,0.11,0.1101,0,0,0,0,0,0,0,0,0,0,0,0,0,0.1005,0.0963,0.1082,0.1084,0.1085,0.1126,0.1126,0.1127,0.1111,0.111,0.1109,0.1108,0.11,0.11,0.1101,0.1122,0,0,0.1102,0.1103,0,0,0,0,0,0,0,0,0.1003,0.1009,0.1083,0.1084,0.1085,0.1116,0.1081,0.1124,0.1111,0.1096,0.1108,0.1107,0.1104,0.1104,0.1109,0.1122,0.1121,0.1102,0.1103,0.1103,0.1103,0,0,0,0,0,0,0,0.1,0.1007,0.1095,0.1084,0.1086,0.1075,0.108,0.1088,0.11,0.1097,0.1097,0.111,0.1103,0.1108,0.1109,0.1121,0.1102,0.1103,0.1103,0.1103,0.1185,0.1187,0,0,0,0,0,0,0.1006,0.1005,0.1094,0.1097,0.1046,0.1079,0.1084,0.1103,0.1101,0.1102,0.111,0.1109,0.1108,0.1108,0.1108,0.1171,0.1103,0.1103,0.1104,0.1183,0.1186,0.1188,0,0,0,0,0,0,0.1003,0.1014,0.1092,0.1054,0.1064,0.1082,0.1103,0.1105,0.1112,0.1113,0.1111,0.1118,0.1107,0.1107,0.113,0.1169,0.1104,0.1104,0.1181,0.1184,0.1187,0.1273,0,0,0,0,0,0,0.1,0.1012,0.1026,0.1055,0.1067,0.1124,0.1105,0.1106,0.1123,0.1122,0.1118,0.1116,0.1107,0.113,0.1131,0.1169,0.1105,0.1179,0.1182,0.1186,0.1267,0.1278,0.1287,0,0,0,0,0,0.0995,0.1019,0.1027,0.1038,0.1086,0.1125,0.113,0.1136,0.1125,0.1137,0.1139,0.1117,0.1153,0.1132,0.1132,0.1171,0.1177,0.1181,0.1185,0.1263,0.1276,0.1287,0,0,0,0,0,0,0.0975,0.1022,0.103,0.1067,0.1098,0.1124,0.114,0.1142,0.1154,0.1149,0.1139,0.1139,0.1173,0.1162,0.1139,0.1206,0.1162,0.1167,0.1221,0.1233,0.1243,0.1295,0.1105,0,0,0,0,0,0.0979,0.1008,0.105,0.108,0.1099,0.112,0.1135,0.1141,0.1158,0.1161,0.1162,0.1168,0.1193,0.1203,0.1211,0.1248,0.1308,0.1274,0.1284,0.1293,0.1337,0.1508,0.154,0.1201,0.1201,0.1201,0,0,0.0981,0.101,0.1027,0.1077,0.11,0.1128,0.1126,0.1156,0.1181,0.116,0.1189,0.1199,0.1209,0.1252,0.1267,0.1247,0.1406,0.1298,0.1305,0.1346,0.1517,0.155,0.158,0.1204,0.1204,0.1203,0,0,0.0993,0.1026,0.105,0.1077,0.1119,0.1138,0.115,0.1182,0.1201,0.1233,0.1235,0.1286,0.1286,0.1335,0.1352,0.1426,0.1451,0.1407,0.1506,0.1671,0.1702,0.1729,0.1794,0.1827,0.1416,0.1416,0.1416,0,0.0987,0.1029,0.1063,0.109,0.1119,0.1144,0.1176,0.1204,0.1236,0.1289,0.1247,0.1354,0.1341,0.1463,0.1478,0.1454,0.1522,0.1456,0.1689,0.1718,0.1746,0.1806,0.1842,0.1421,0.142,0.142,0.1419,0,0.1016,0.1046,0.1066,0.111,0.1147,0.1179,0.1229,0.1277,0.1297,0.1337,0.1452,0.1472,0.1553,0.1547,0.1527,0.1714,0.1686,0.1681,0.1667,0.1786,0.1839,0.1875,0.1427,0.1426,0.1424,0.1423,0,0,0.1006,0.1072,0.1076,0.1112,0.1162,0.1205,0.1274,0.1372,0.1455,0.1499,0.163,0.1683,0.1726,0.1753,0.1762,0.1893,0.2096,0.1871,0.1878,0.1948,0.2417,0.2366,0.2399,0.2151,0.2158,0.2165,0.2357,0,0.1015,0.1068,0.1103,0.1166,0.1206,0.1272,0.1347,0.1442,0.1513,0.164,0.1739,0.1837,0.1794,0.1849,0.1984,0.2076,0.2204,0.2041,0.2281,0.2287,0.2242,0.2446,0.2435,0.2607,0.2392,0.2398,0.2402,0,0.1025,0.1068,0.1124,0.1233,0.1262,0.1306,0.1473,0.1545,0.1726,0.1784,0.1934,0.2,0.2191,0.2132,0.2414,0.2318,0.2387,0.2449,0.2459,0.2424,0.2308,0.2464,0.268,0.2609,0.2457,0.2453,0.2449,0,0.1016,0.1089,0.1142,0.1168,0.1286,0.1357,0.1439,0.16,0.1699,0.19,0.1991,0.2212,0.233,0.2507,0.2619,0.2547,0.2924,0.283,0.2851,0.2842,0.289,0.2874,0.3091,0.3073,0.3073,0.3072,0.3072,0,0.1023,0.107,0.1144,0.118,0.1296,0.137,0.1523,0.1632,0.1801,0.1944,0.2074,0.2218,0.2446,0.2659,0.2735,0.2927,0.3029,0.2939,0.2944,0.2905,0.289,0.2869,0.2834,0.3079,0.3078,0.3076,0.3075,0,0.1029,0.1053,0.114,0.1255,0.1293,0.1391,0.1557,0.1673,0.1806,0.2002,0.2075,0.2297,0.2557,0.2764,0.305,0.3066,0.3193,0.3276,0.3164,0.3153,0.3031,0.3,0.3097,0.303,0.3324,0.3325,0.3325,0,0.1049,0.1085,0.1194,0.125,0.1307,0.1437,0.1534,0.1672,0.1779,0.2035,0.2129,0.2421,0.2591,0.2971,0.3152,0.3355,0.3256,0.34,0.3263,0.3101,0.3073,0.287,0.2791,0.3329,0.333,0.333,0.3331,0,0.1125,0.1149,0.1224,0.131,0.1399,0.1507,0.1636,0.17,0.1878,0.201,0.2198,0.2347,0.2715,0.2931,0.3207,0.3322,0.3272,0.3407,0.3347,0.3219,0.2922,0.283,0.3031,0.3335,0.3335,0.3334,0.3334,0.3334,0.1204,0.1254,0.1317,0.1407,0.1483,0.1549,0.1616,0.1713,0.1839,0.1997,0.2179,0.2341,0.2716,0.3087,0.3188,0.3374,0.326,0.3322,0.3329,0.3155,0.3027,0.3177,0.3409,0.3409,0.3409,0.3409,0.3409,0,0.1297,0.1321,0.141,0.1488,0.1536,0.1565,0.1665,0.1694,0.1768,0.1927,0.2069,0.2428,0.2695,0.2988,0.3366,0.3333,0.3164,0.3284,0.3052,0.3,0.3279,0.3213,0.3286,0.3286,0.3286,0.3286,0.3286,0.3286,0.1362,0.1418,0.1435,0.1502,0.1533,0.1569,0.1593,0.1609,0.1691,0.1847,0.2008,0.2207,0.2709,0.3243,0.3437,0.3376,0.3118,0.3007,0.2924,0.3176,0.3178,0.318,0.311,0.3161,0.3161,0.2535,0.2531,0.2528]},{"header":{"parameterUnit":"m.s-1","parameterCategory":2,"la1":30.2991,"la2":30.254,"lo1":-89.0895,"lo2":-89.0444,"dy":0.0017,"dx":0.0017,"nx":28,"ny":28,"refTime":"2025-05-28T21:00:00:Z","depth":"0","parameterNumber":3,"parameterNumberName":"V-component_of_CURRENTS"},"data":[0,0,0,0,0,0,0,0,0,0,0,0,0,0,0,0,0,0,0,0,0,0,0,0,0,0,0,0,0,0,0,0,0,0,0,0,0,0,0,0,0,0,0,0,0,0,0,0,0,0,0,0,0,0,0,0,0,0,-0.0247,-0.0248,0,-0.0271,-0.0271,-0.0271,-0.0303,-0.0303,-0.0304,-0.0305,-0.029,-0.0289,-0.0287,0,0,0,0,0,0,0,0,0,0,0,0,0,-0.0204,-0.0204,-0.0247,-0.0248,-0.0248,-0.0271,-0.0271,-0.0271,-0.0302,-0.0303,-0.0304,-0.0305,-0.029,-0.0289,-0.0287,0,0,0,0,0,0,0,0,0,0,0,0,0,-0.0222,-0.0204,-0.0247,-0.0268,-0.027,-0.0271,-0.0271,-0.0271,-0.0302,-0.0303,-0.0304,-0.0305,-0.029,-0.0289,-0.0287,-0.0256,0,0,-0.0282,-0.0282,0,0,0,0,0,0,0,0,-0.0221,-0.0224,-0.0265,-0.0267,-0.0269,-0.0287,-0.025,-0.0265,-0.0302,-0.0288,-0.0305,-0.0306,-0.0285,-0.0284,-0.0284,-0.0255,-0.0255,-0.0282,-0.0281,-0.0281,-0.028,0,0,0,0,0,0,0,-0.022,-0.0223,-0.0255,-0.0265,-0.0268,-0.0268,-0.0271,-0.0253,-0.0278,-0.0289,-0.0292,-0.0298,-0.0286,-0.0286,-0.0284,-0.0255,-0.0282,-0.0281,-0.028,-0.0279,-0.0194,-0.0192,0,0,0,0,0,0,-0.0221,-0.0222,-0.0254,-0.0256,-0.025,-0.0268,-0.0272,-0.0278,-0.0279,-0.0281,-0.0297,-0.0299,-0.0288,-0.0286,-0.0283,-0.0214,-0.0281,-0.0279,-0.0278,-0.0195,-0.0193,-0.0192,0,0,0,0,0,0,-0.022,-0.0224,-0.0253,-0.0241,-0.0245,-0.0268,-0.0274,-0.0278,-0.0279,-0.0286,-0.0287,-0.0294,-0.0289,-0.0286,-0.0266,-0.0215,-0.0278,-0.0277,-0.0197,-0.0195,-0.0193,-0.0095,0,0,0,0,0,0,-0.0219,-0.0223,-0.0222,-0.0241,-0.0246,-0.0243,-0.0274,-0.0278,-0.0282,-0.0285,-0.0284,-0.0284,-0.0289,-0.0269,-0.0265,-0.0214,-0.0276,-0.0198,-0.0196,-0.0193,-0.01,-0.009,-0.0082,0,0,0,0,0,-0.0217,-0.0204,-0.0221,-0.0225,-0.0245,-0.0243,-0.0244,-0.0263,-0.0281,-0.027,-0.0276,-0.0284,-0.025,-0.0266,-0.0262,-0.0209,-0.0199,-0.0196,-0.0194,-0.0104,-0.0092,-0.0082,0,0,0,0,0,0,-0.0175,-0.0206,-0.0226,-0.0222,-0.0231,-0.0249,-0.0238,-0.0257,-0.0254,-0.0256,-0.0269,-0.0268,-0.0234,-0.0239,-0.0257,-0.018,-0.0224,-0.022,-0.0158,-0.0147,-0.0138,-0.0068,-0.0274,0,0,0,0,0,-0.0168,-0.0172,-0.0198,-0.0193,-0.0195,-0.0217,-0.0218,-0.0232,-0.0237,-0.0238,-0.0241,-0.0236,-0.0216,-0.0198,-0.0193,-0.0144,-0.0136,-0.0109,-0.0099,-0.0091,-0.0033,0.0044,0.0067,-0.0182,-0.0182,-0.0182,0,0,-0.0151,-0.0169,-0.0171,-0.0185,-0.0193,-0.018,-0.0219,-0.0214,-0.0186,-0.0233,-0.0195,-0.0209,-0.0202,-0.0155,-0.0138,-0.015,-0.0037,-0.0087,-0.008,-0.0026,0.005,0.0075,0.0097,-0.018,-0.0181,-0.0181,0,0,-0.0121,-0.0132,-0.013,-0.0132,-0.0145,-0.0146,-0.0144,-0.0158,-0.0144,-0.0123,-0.0142,-0.0114,-0.0109,-0.0067,-0.0051,0.0019,-0.0001,0.0,0.0125,0.0198,0.0221,0.0241,0.0198,0.0214,0.002,0.002,0.002,0,-0.01,-0.0098,-0.0124,-0.0118,-0.009,-0.0128,-0.009,-0.0083,-0.0088,-0.0039,-0.0101,-0.003,-0.0048,0.007,0.0081,0.005,0.0044,0.0081,0.0215,0.0236,0.0255,0.0207,0.0223,0.0025,0.0024,0.0024,0.0023,0,-0.0076,-0.0064,-0.0052,-0.0051,-0.0021,0.0004,0.0018,0.0058,0.0058,0.0064,0.0153,0.0134,0.0193,0.0177,0.0148,0.0288,0.0216,0.0206,0.0195,0.0287,0.0227,0.0243,0.0032,0.003,0.0029,0.0028,0,0,-0.0052,-0.0038,-0.0034,0.0022,0.0027,0.008,0.0147,0.0231,0.0317,0.0298,0.0421,0.0432,0.042,0.0441,0.0416,0.0477,0.0547,0.0407,0.0408,0.0377,0.0633,0.061,0.0623,0.0566,0.0572,0.0576,0.0505,0,-0.0019,0.0035,0.0035,0.0143,0.0198,0.0236,0.0327,0.0402,0.0432,0.0528,0.055,0.0617,0.052,0.0557,0.0605,0.0593,0.0607,0.0562,0.054,0.0538,0.0522,0.0651,0.0588,0.0528,0.052,0.0523,0.0525,0,0.0009,0.0054,0.015,0.0311,0.0346,0.0414,0.0616,0.069,0.0796,0.0808,0.0872,0.0856,0.0953,0.0837,0.0884,0.0859,0.0759,0.0714,0.071,0.0692,0.0551,0.0451,0.0555,0.032,0.0548,0.0546,0.0545,0,0.0091,0.0168,0.0275,0.0309,0.0446,0.056,0.0668,0.0789,0.0891,0.0998,0.1042,0.1122,0.1178,0.1137,0.1024,0.0967,0.1043,0.0943,0.0807,0.0796,0.0749,0.073,0.0657,0.0962,0.0962,0.0963,0.0963,0,0.0167,0.0275,0.0327,0.0403,0.0604,0.0673,0.0903,0.0985,0.1101,0.1242,0.1201,0.1292,0.1267,0.1281,0.1131,0.105,0.1123,0.088,0.0833,0.0766,0.0751,0.0548,0.0425,0.096,0.096,0.0961,0.0961,0,0.0307,0.0299,0.0456,0.0593,0.0649,0.0824,0.1042,0.1192,0.1245,0.1423,0.1462,0.1477,0.1509,0.1424,0.1373,0.1203,0.0993,0.1027,0.09,0.0844,0.0501,0.0386,0.0417,0.0307,0.0879,0.0879,0.0879,0,0.0415,0.0485,0.061,0.0706,0.0789,0.1009,0.1162,0.1266,0.1401,0.153,0.1625,0.1677,0.1728,0.1614,0.1364,0.1144,0.0984,0.0927,0.0836,0.0537,0.0373,0.0365,0.0268,0.0736,0.0735,0.0734,0.0733,0,0.0659,0.0663,0.0781,0.0937,0.1087,0.1277,0.1487,0.156,0.1699,0.1823,0.1947,0.1984,0.1811,0.1638,0.1348,0.1134,0.0792,0.0898,0.0665,0.0361,0.028,0.0131,0.0627,0.0724,0.0725,0.0726,0.0726,0.0727,0.0872,0.0967,0.1056,0.123,0.1378,0.153,0.1689,0.1865,0.2067,0.2239,0.2214,0.2291,0.1896,0.148,0.1203,0.0608,0.0649,0.0416,0.0317,0.035,0.0243,0.0691,0.0709,0.071,0.071,0.0711,0.0711,0,0.1111,0.1167,0.1353,0.1546,0.1728,0.174,0.1908,0.2027,0.2257,0.2399,0.2536,0.2339,0.1848,0.1319,0.0526,0.0115,-0.0041,-0.0104,-0.0178,-0.0242,0.02,0.0188,0.0007,0.0007,0.0007,0.0008,0.0008,0.0008,0.1249,0.141,0.1461,0.1788,0.1934,0.2129,0.2178,0.2311,0.2392,0.2555,0.2606,0.2613,0.2234,0.0846,-0.0083,-0.0347,-0.0675,-0.0695,-0.0815,-0.0618,-0.0579,-0.0542,-0.0582,-0.0921,-0.0922,-0.1226,-0.123,-0.1233]}],[{"header":{"parameterUnit":"m.s-1","parameterCategory":2,"la1":30.2991,"la2":30.254,"lo1":-89.0895,"lo2":-89.0444,"dy":0.0017,"dx":0.0017,"nx":28,"ny":28,"refTime":"2025-05-28T21:00:00:Z","depth":"2","parameterNumber":2,"parameterNumberName":"U-component_of_CURRENTS"},"data":[0,0,0,0,0,0,0,0,0,0,0,0,0,0,0,0,0,0,0,0,0,0,0,0,0,0,0,0,0,0,0,0,0,0,0,0,0,0,0,0,0,0,0,0,0,0,0,0,0,0,0,0,0,0,0,0,0,0,0.1079,0.108,0,0.1122,0.1122,0.1122,0.111,0.1109,0.1109,0.1108,0.1106,0.1106,0.1107,0,0,0,0,0,0,0,0,0,0,0,0,0,0.0963,0.0965,0.1079,0.108,0.1081,0.1122,0.1122,0.1122,0.111,0.1109,0.1109,0.1108,0.1106,0.1106,0.1107,0,0,0,0,0,0,0,0,0,0,0,0,0,0.1006,0.0965,0.1079,0.1083,0.1084,0.1122,0.1122,0.1122,0.111,0.1109,0.1109,0.1108,0.1106,0.1106,0.1107,0.1125,0,0,0.1108,0.1109,0,0,0,0,0,0,0,0,0.1004,0.101,0.1082,0.1083,0.1084,0.1114,0.108,0.1122,0.111,0.1096,0.1108,0.1108,0.1108,0.1108,0.1112,0.1125,0.1125,0.1109,0.1109,0.1109,0.1109,0,0,0,0,0,0,0,0.1001,0.1008,0.1092,0.1083,0.1084,0.1075,0.108,0.1088,0.1101,0.1097,0.1097,0.1109,0.1107,0.1112,0.1112,0.1125,0.1109,0.1109,0.1109,0.111,0.1192,0.1194,0,0,0,0,0,0,0.1007,0.1005,0.1091,0.1094,0.1046,0.1078,0.1083,0.1101,0.1102,0.1103,0.111,0.1108,0.1111,0.1111,0.1112,0.1173,0.1109,0.111,0.111,0.119,0.1193,0.1195,0,0,0,0,0,0,0.1004,0.1014,0.1089,0.1053,0.1062,0.1081,0.1101,0.1103,0.1112,0.1113,0.1112,0.1118,0.111,0.1111,0.1136,0.1171,0.111,0.111,0.1188,0.1191,0.1194,0.1269,0,0,0,0,0,0,0.1,0.1013,0.1027,0.1054,0.1065,0.112,0.1103,0.1104,0.1122,0.1121,0.112,0.1119,0.111,0.1135,0.1136,0.1171,0.1111,0.1186,0.1189,0.1193,0.1264,0.1274,0.1283,0,0,0,0,0,0.0996,0.102,0.1027,0.1037,0.1084,0.1121,0.1126,0.1132,0.1123,0.1135,0.114,0.1119,0.1158,0.1137,0.1138,0.1173,0.1184,0.1188,0.1192,0.126,0.1272,0.1282,0,0,0,0,0,0,0.0977,0.1022,0.103,0.1067,0.1096,0.1121,0.1137,0.1139,0.1152,0.1149,0.1141,0.1141,0.1176,0.1166,0.1144,0.1208,0.1168,0.1173,0.122,0.1231,0.124,0.1269,0.1111,0,0,0,0,0,0.0981,0.1009,0.1049,0.1078,0.1097,0.1117,0.1132,0.1139,0.1156,0.1161,0.1163,0.1172,0.1195,0.1205,0.1215,0.125,0.1266,0.1275,0.1284,0.1291,0.1317,0.1365,0.1381,0.1208,0.1208,0.1208,0,0,0.0982,0.1011,0.1027,0.1076,0.1098,0.1127,0.1123,0.1154,0.1178,0.1159,0.1189,0.1201,0.1211,0.1253,0.1268,0.1248,0.1352,0.1297,0.1303,0.1325,0.1371,0.1388,0.1403,0.1211,0.1211,0.121,0,0,0.0994,0.1027,0.1051,0.1077,0.1118,0.1138,0.1149,0.1181,0.1198,0.1231,0.1234,0.1277,0.1287,0.1323,0.1338,0.1407,0.1397,0.14,0.1473,0.1519,0.1534,0.1547,0.1601,0.1618,0.1407,0.1407,0.1407,0,0.0989,0.1031,0.1063,0.1091,0.1119,0.1144,0.1175,0.1201,0.1234,0.1274,0.1246,0.1333,0.1329,0.1422,0.1443,0.143,0.1452,0.1427,0.1532,0.1545,0.1557,0.1609,0.1628,0.1411,0.1411,0.141,0.141,0,0.1019,0.1049,0.1069,0.1114,0.1149,0.1181,0.1227,0.126,0.128,0.132,0.141,0.1429,0.1492,0.1494,0.1486,0.1587,0.1575,0.1535,0.1503,0.1579,0.1629,0.1647,0.1417,0.1416,0.1414,0.1413,0,0,0.1008,0.1076,0.108,0.1112,0.1165,0.1202,0.1254,0.1334,0.1393,0.1436,0.1538,0.1586,0.1625,0.1647,0.1659,0.1698,0.1796,0.1657,0.1658,0.1713,0.1912,0.1879,0.1895,0.1767,0.177,0.1773,0.1916,0,0.1019,0.1075,0.1107,0.1165,0.1205,0.1251,0.1313,0.1388,0.1442,0.1543,0.1621,0.1702,0.1676,0.1717,0.1767,0.1788,0.1845,0.1762,0.183,0.1834,0.1795,0.1915,0.1721,0.183,0.1933,0.1936,0.1938,0,0.1031,0.1075,0.1132,0.1221,0.1246,0.1285,0.1401,0.146,0.1602,0.1655,0.1767,0.1817,0.1938,0.1874,0.1992,0.1939,0.1947,0.1948,0.1953,0.1912,0.1834,0.1769,0.1858,0.1968,0.1965,0.1963,0.1961,0,0.1022,0.1091,0.1143,0.1168,0.1271,0.1318,0.1383,0.1504,0.158,0.1738,0.1809,0.1951,0.2034,0.2072,0.2069,0.2046,0.2164,0.2128,0.212,0.2117,0.1963,0.1941,0.2215,0.2215,0.2214,0.2214,0.2213,0,0.103,0.107,0.1145,0.1179,0.1277,0.1339,0.1452,0.1534,0.1668,0.1776,0.1881,0.1983,0.2079,0.2144,0.2134,0.2187,0.2221,0.2179,0.2167,0.1984,0.1964,0.2077,0.2059,0.2219,0.2218,0.2217,0.2216,0,0.1033,0.1062,0.1138,0.1241,0.1277,0.1357,0.1487,0.1564,0.168,0.1819,0.1873,0.2049,0.2137,0.2182,0.2255,0.2274,0.2299,0.2289,0.2076,0.2039,0.2223,0.2207,0.2378,0.2378,0.2379,0.2379,0.2379,0,0.1049,0.1082,0.1188,0.1225,0.1275,0.1382,0.1455,0.1577,0.1656,0.1836,0.1916,0.205,0.2141,0.227,0.2262,0.2286,0.2296,0.2171,0.2107,0.2277,0.2248,0.2231,0.2216,0.1937,0.1934,0.1931,0.1929,0,0.1094,0.112,0.1171,0.1241,0.1306,0.1394,0.1501,0.1563,0.1696,0.1775,0.1908,0.1985,0.2135,0.2126,0.2166,0.2138,0.216,0.2122,0.2359,0.192,0.1871,0.1839,0.1836,0.1904,0.1906,0.1908,0.191,0.1911,0.111,0.1139,0.1173,0.1243,0.1313,0.1372,0.1416,0.1503,0.1578,0.1677,0.1806,0.1861,0.1949,0.1938,0.1907,0.1907,0.205,0.2006,0.2011,0.2019,0.1937,0.189,0.1913,0.1915,0.1917,0.1919,0.1921,0,0.1096,0.1108,0.117,0.1214,0.126,0.1323,0.1416,0.142,0.1458,0.1553,0.1624,0.1516,0.1552,0.1632,0.1612,0.1682,0.1608,0.1635,0.1525,0.1551,0.1574,0.1464,0.1318,0.1316,0.1315,0.1313,0,0,0.1055,0.1071,0.1097,0.1135,0.1182,0.1203,0.1239,0.1251,0.1299,0.128,0.1299,0.1418,0.155,0.1369,0.1391,0.1369,0.1428,0.1308,0.1787,0.1678,0.1698,0.1787,0.1649,0,0,0,0,0]},{"header":{"parameterUnit":"m.s-1","parameterCategory":2,"la1":30.2991,"la2":30.254,"lo1":-89.0895,"lo2":-89.0444,"dy":0.0017,"dx":0.0017,"nx":28,"ny":28,"refTime":"2025-05-28T21:00:00:Z","depth":"2","parameterNumber":3,"parameterNumberName":"V-component_of_CURRENTS"},"data":[0,0,0,0,0,0,0,0,0,0,0,0,0,0,0,0,0,0,0,0,0,0,0,0,0,0,0,0,0,0,0,0,0,0,0,0,0,0,0,0,0,0,0,0,0,0,0,0,0,0,0,0,0,0,0,0,0,0,-0.0369,-0.037,0,-0.0393,-0.0394,-0.0394,-0.042,-0.0421,-0.0421,-0.0422,-0.0414,-0.0413,-0.0413,0,0,0,0,0,0,0,0,0,0,0,0,0,-0.032,-0.0321,-0.0369,-0.037,-0.037,-0.0393,-0.0394,-0.0394,-0.042,-0.0421,-0.0421,-0.0422,-0.0414,-0.0413,-0.0412,0,0,0,0,0,0,0,0,0,0,0,0,0,-0.0341,-0.0321,-0.0369,-0.0387,-0.0389,-0.0393,-0.0394,-0.0394,-0.042,-0.0421,-0.0422,-0.0422,-0.0414,-0.0413,-0.0412,-0.039,0,0,-0.0409,-0.0409,0,0,0,0,0,0,0,0,-0.034,-0.0343,-0.0384,-0.0386,-0.0388,-0.0406,-0.0374,-0.0392,-0.042,-0.0407,-0.0422,-0.0423,-0.0409,-0.0408,-0.0409,-0.039,-0.039,-0.0409,-0.0408,-0.0408,-0.0408,0,0,0,0,0,0,0,-0.0339,-0.0342,-0.0377,-0.0384,-0.0387,-0.0385,-0.0389,-0.0377,-0.0401,-0.0408,-0.041,-0.0415,-0.0409,-0.041,-0.0409,-0.039,-0.0409,-0.0408,-0.0408,-0.0407,-0.035,-0.0349,0,0,0,0,0,0,-0.0339,-0.0341,-0.0377,-0.0378,-0.0367,-0.0386,-0.039,-0.0398,-0.0402,-0.0404,-0.0414,-0.0416,-0.0412,-0.041,-0.0409,-0.0365,-0.0408,-0.0407,-0.0406,-0.0351,-0.035,-0.0349,0,0,0,0,0,0,-0.0338,-0.0342,-0.0376,-0.0361,-0.0365,-0.0386,-0.0395,-0.0398,-0.0398,-0.0408,-0.0409,-0.0411,-0.0412,-0.041,-0.0399,-0.0366,-0.0407,-0.0406,-0.0352,-0.035,-0.0349,-0.0289,0,0,0,0,0,0,-0.0337,-0.0342,-0.034,-0.0361,-0.0366,-0.0368,-0.0394,-0.0398,-0.0401,-0.0403,-0.0405,-0.0405,-0.0413,-0.04,-0.0398,-0.0365,-0.0405,-0.0353,-0.0351,-0.035,-0.0292,-0.0285,-0.028,0,0,0,0,0,-0.0335,-0.0324,-0.034,-0.0344,-0.0366,-0.0368,-0.0369,-0.0386,-0.04,-0.039,-0.04,-0.0405,-0.0388,-0.0399,-0.0396,-0.0362,-0.0354,-0.0352,-0.035,-0.0294,-0.0287,-0.028,0,0,0,0,0,0,-0.0294,-0.0327,-0.0344,-0.0343,-0.0353,-0.0373,-0.0363,-0.038,-0.038,-0.038,-0.0395,-0.0395,-0.0375,-0.0378,-0.039,-0.0342,-0.037,-0.0368,-0.0329,-0.0322,-0.0316,-0.034,-0.0404,0,0,0,0,0,-0.0288,-0.0294,-0.032,-0.0317,-0.032,-0.0341,-0.0343,-0.0355,-0.0363,-0.0365,-0.037,-0.037,-0.0363,-0.0352,-0.0351,-0.0318,-0.036,-0.0295,-0.0289,-0.0284,-0.0303,-0.0341,-0.0341,-0.0342,-0.0342,-0.0342,0,0,-0.0271,-0.029,-0.0293,-0.031,-0.0318,-0.0315,-0.0343,-0.0338,-0.0331,-0.0361,-0.0344,-0.0352,-0.0354,-0.0326,-0.0315,-0.0323,-0.0303,-0.0282,-0.0277,-0.0299,-0.0339,-0.0339,-0.0339,-0.0341,-0.0341,-0.0341,0,0,-0.0243,-0.0256,-0.0255,-0.026,-0.0273,-0.0284,-0.0282,-0.0297,-0.0296,-0.0285,-0.0305,-0.0308,-0.0284,-0.029,-0.0287,-0.0248,-0.0278,-0.0226,-0.0203,-0.0238,-0.0239,-0.024,-0.0284,-0.029,-0.0213,-0.0212,-0.0212,0,-0.0222,-0.0228,-0.025,-0.0247,-0.0241,-0.0269,-0.0254,-0.0255,-0.0265,-0.0251,-0.0271,-0.027,-0.0275,-0.0254,-0.0242,-0.0236,-0.0262,-0.0226,-0.0232,-0.0234,-0.0237,-0.0281,-0.0288,-0.0209,-0.021,-0.021,-0.021,0,-0.0202,-0.0199,-0.019,-0.0201,-0.0194,-0.0181,-0.019,-0.0196,-0.0201,-0.0188,-0.0177,-0.0207,-0.0204,-0.0199,-0.0208,-0.0207,-0.0223,-0.0228,-0.0252,-0.0233,-0.0281,-0.0289,-0.0205,-0.0206,-0.0207,-0.0208,0,0,-0.0173,-0.0176,-0.0174,-0.0175,-0.0165,-0.0168,-0.015,-0.0133,-0.0125,-0.013,-0.01,-0.012,-0.013,-0.0132,-0.0149,-0.0188,-0.0225,-0.0207,-0.021,-0.0255,-0.0306,-0.0347,-0.0361,-0.0221,-0.0223,-0.0224,-0.0329,0,-0.0148,-0.0123,-0.0136,-0.0117,-0.0096,-0.0121,-0.0086,-0.0073,-0.0078,-0.0052,-0.0066,-0.004,-0.0097,-0.0094,-0.014,-0.0224,-0.0245,-0.0197,-0.0315,-0.032,-0.0363,-0.0372,-0.031,-0.0402,-0.0338,-0.034,-0.0341,0,-0.0124,-0.0108,-0.0063,-0.0059,-0.0053,-0.0041,-0.0031,-0.0002,0.0037,0.0034,0.0031,0.0032,-0.002,-0.0053,-0.0214,-0.0178,-0.0227,-0.0295,-0.03,-0.0374,-0.0377,-0.0413,-0.0421,-0.0356,-0.0355,-0.0354,-0.0353,0,-0.0075,-0.0072,-0.003,-0.0025,-0.0007,-0.0001,0.0023,0.0053,0.0101,0.0109,0.0132,0.0062,0.006,-0.0076,-0.0247,-0.0212,-0.043,-0.0388,-0.0466,-0.047,-0.0464,-0.0465,-0.0452,-0.0452,-0.0452,-0.0452,-0.0451,0,-0.0029,-0.0009,-0.0008,0.0014,0.0065,0.0073,0.0119,0.0118,0.0182,0.0252,0.0213,0.02,0.0059,-0.0072,-0.0235,-0.0432,-0.0428,-0.0485,-0.0506,-0.0439,-0.0437,-0.0434,-0.043,-0.0456,-0.0455,-0.0454,-0.0453,0,0.0039,0.0044,0.0075,0.0089,0.01,0.0156,0.0208,0.0216,0.028,0.0353,0.0378,0.0333,0.0123,-0.0078,-0.0302,-0.0391,-0.0601,-0.0641,-0.0569,-0.058,-0.0601,-0.0593,-0.0712,-0.0715,-0.0717,-0.0719,-0.072,0,0.0084,0.0099,0.0135,0.015,0.0159,0.0216,0.0238,0.0285,0.0311,0.0393,0.0433,0.0332,0.0224,-0.0152,-0.0386,-0.0677,-0.0679,-0.0723,-0.0635,-0.0624,-0.0631,-0.062,-0.0609,-0.0595,-0.0595,-0.0596,-0.0596,0,0.0106,0.0114,0.0096,0.0174,0.0184,0.0235,0.0287,0.0352,0.0413,0.0396,0.0417,0.0368,0.0155,-0.0111,-0.0448,-0.0621,-0.0694,-0.0732,-0.076,-0.0541,-0.0522,-0.0526,-0.0518,-0.0598,-0.0598,-0.0598,-0.0598,-0.0597,0.0056,0.005,0.0021,0.0096,0.0109,0.0214,0.0266,0.0296,0.0312,0.0389,0.0367,0.0311,0.0191,-0.0246,-0.0506,-0.0712,-0.0704,-0.0723,-0.0717,-0.0713,-0.0683,-0.0669,-0.0768,-0.0768,-0.0769,-0.0769,-0.077,0,-0.0049,-0.0075,-0.0051,-0.0035,-0.0022,0.0093,0.0215,0.0261,0.0231,0.0334,0.0308,0.017,-0.0052,-0.0206,-0.0479,-0.0657,-0.0631,-0.0713,-0.0616,-0.0615,-0.0613,-0.0573,-0.0631,-0.0631,-0.0631,-0.0631,0,0,-0.0188,-0.0208,-0.0179,-0.0197,-0.0139,-0.01,0.001,0.0117,0.0223,0.0239,0.0265,0.0256,0.009,-0.0091,-0.0347,-0.0468,-0.0498,-0.05,-0.0596,-0.0452,-0.0447,-0.0609,-0.0547,0,0,0,0,0]}],[{"header":{"parameterUnit":"m.s-1","parameterCategory":2,"la1":30.2991,"la2":30.254,"lo1":-89.0895,"lo2":-89.0444,"dy":0.0017,"dx":0.0017,"nx":28,"ny":28,"refTime":"2025-05-28T21:00:00:Z","depth":"4","parameterNumber":2,"parameterNumberName":"U-component_of_CURRENTS"},"data":[0,0,0,0,0,0,0,0,0,0,0,0,0,0,0,0,0,0,0,0,0,0,0,0,0,0,0,0,0,0,0,0,0,0,0,0,0,0,0,0,0,0,0,0,0,0,0,0,0,0,0,0,0,0,0,0,0,0,0.0489,0.049,0,0.0531,0.0531,0.0532,0.0602,0.0603,0.0604,0.0605,0.0698,0.07,0.0701,0,0,0,0,0,0,0,0,0,0,0,0,0,0.0441,0.0441,0.0489,0.049,0.049,0.0531,0.0531,0.0532,0.0602,0.0603,0.0605,0.0606,0.0698,0.07,0.0701,0,0,0,0,0,0,0,0,0,0,0,0,0,0.047,0.0442,0.0489,0.053,0.0534,0.0531,0.0531,0.0532,0.0601,0.0603,0.0605,0.0607,0.0698,0.0699,0.0701,0.0675,0,0,0.0707,0.0708,0,0,0,0,0,0,0,0,0.0469,0.0472,0.0523,0.0527,0.0531,0.0563,0.0548,0.0583,0.0601,0.0576,0.0605,0.0608,0.0656,0.0662,0.0665,0.068,0.0684,0.0707,0.0709,0.071,0.071,0,0,0,0,0,0,0,0.0466,0.047,0.0506,0.0523,0.0528,0.0536,0.0542,0.0555,0.0606,0.0578,0.0583,0.0587,0.0659,0.0663,0.0668,0.0685,0.0707,0.0709,0.071,0.0711,0.0776,0.0777,0,0,0,0,0,0,0.046,0.0469,0.0505,0.0507,0.0504,0.0535,0.0542,0.0551,0.0605,0.0615,0.0585,0.059,0.0659,0.0666,0.0671,0.0744,0.0709,0.0711,0.0712,0.0776,0.0776,0.0777,0,0,0,0,0,0,0.0459,0.0463,0.0503,0.0488,0.0494,0.0534,0.0543,0.0551,0.0583,0.061,0.0621,0.0613,0.066,0.0669,0.0706,0.0745,0.0712,0.0714,0.0775,0.0776,0.0777,0.0826,0,0,0,0,0,0,0.0457,0.0462,0.0477,0.0488,0.0495,0.0522,0.0541,0.055,0.0581,0.0588,0.0636,0.0645,0.0663,0.0703,0.0708,0.0747,0.0715,0.0774,0.0775,0.0776,0.0823,0.0828,0.0832,0,0,0,0,0,0.0456,0.0463,0.0477,0.0482,0.051,0.0523,0.0527,0.0561,0.058,0.0598,0.0628,0.0646,0.0713,0.0704,0.071,0.0751,0.0774,0.0775,0.0776,0.0821,0.0827,0.0832,0,0,0,0,0,0,0.045,0.0471,0.0487,0.0503,0.0522,0.0535,0.0554,0.057,0.0605,0.0623,0.0647,0.0657,0.071,0.0711,0.07,0.077,0.0748,0.0751,0.0781,0.0786,0.079,0.0791,0.0717,0,0,0,0,0,0.0452,0.0471,0.0487,0.0504,0.0514,0.0536,0.055,0.0573,0.0597,0.0616,0.0648,0.068,0.0712,0.0734,0.076,0.0787,0.0786,0.0817,0.0822,0.0825,0.0829,0.0842,0.0848,0.0781,0.0781,0.0781,0,0,0.0454,0.047,0.0481,0.0505,0.0524,0.0545,0.0551,0.058,0.0608,0.0619,0.0675,0.0701,0.0722,0.0767,0.079,0.0778,0.0846,0.0827,0.0831,0.0831,0.0844,0.085,0.0856,0.0782,0.0782,0.0782,0,0,0.0462,0.0483,0.0501,0.052,0.0552,0.0564,0.0577,0.0606,0.0635,0.0672,0.0699,0.0737,0.078,0.0807,0.0823,0.0858,0.0871,0.0878,0.0903,0.0916,0.0922,0.0927,0.0946,0.0952,0.0878,0.0878,0.0878,0,0.0466,0.05,0.0508,0.0532,0.0559,0.0576,0.0607,0.0625,0.0667,0.0698,0.0701,0.0777,0.0796,0.0851,0.0871,0.0871,0.0883,0.0885,0.0923,0.0928,0.0932,0.095,0.0956,0.088,0.088,0.088,0.0879,0,0.0485,0.0525,0.0539,0.0581,0.0598,0.0634,0.0654,0.0692,0.0724,0.0747,0.0813,0.0828,0.0874,0.089,0.0895,0.0947,0.0948,0.093,0.0912,0.0942,0.0958,0.0964,0.0884,0.0883,0.0882,0.0882,0,0,0.0475,0.0544,0.0556,0.0592,0.0639,0.0652,0.0702,0.0755,0.0794,0.0831,0.088,0.0929,0.0941,0.0957,0.0969,0.0981,0.1024,0.0976,0.0975,0.0999,0.1068,0.1031,0.1034,0.1022,0.1023,0.1023,0.1072,0,0.0505,0.0564,0.0592,0.0656,0.0689,0.0729,0.0768,0.0812,0.085,0.0896,0.0921,0.0971,0.0963,0.0994,0.1003,0.1026,0.104,0.1013,0.1031,0.1032,0.0999,0.1039,0.1026,0.1076,0.1077,0.1078,0.1079,0,0.0526,0.0566,0.0638,0.071,0.0728,0.0775,0.0851,0.0885,0.0944,0.0974,0.1018,0.103,0.1075,0.1044,0.1088,0.1077,0.1078,0.108,0.1082,0.1032,0.1005,0.1036,0.1089,0.1088,0.1087,0.1086,0.1086,0,0.0514,0.0602,0.0668,0.0694,0.0765,0.0826,0.0874,0.0934,0.0963,0.1036,0.106,0.1102,0.1129,0.1137,0.1139,0.1128,0.1167,0.1145,0.111,0.1108,0.1105,0.1099,0.1163,0.1163,0.1163,0.1163,0.1162,0,0.0533,0.0583,0.0685,0.0714,0.0784,0.0842,0.0914,0.0965,0.1031,0.1058,0.1104,0.1116,0.1154,0.117,0.1163,0.1159,0.1187,0.1127,0.112,0.1125,0.1121,0.111,0.1103,0.1164,0.1164,0.1164,0.1163,0,0.0502,0.0576,0.0637,0.0741,0.0781,0.0828,0.0926,0.0963,0.1045,0.108,0.1108,0.1154,0.1192,0.121,0.1232,0.1192,0.119,0.1176,0.1196,0.1188,0.1119,0.1114,0.1155,0.1154,0.1153,0.1153,0.1152,0,0.0492,0.0528,0.0631,0.0663,0.0726,0.081,0.0856,0.0957,0.0989,0.1079,0.1082,0.1156,0.1174,0.1173,0.1203,0.1215,0.1192,0.1187,0.114,0.113,0.112,0.1116,0.1112,0.1151,0.1151,0.1151,0.115,0,0.0449,0.0496,0.0537,0.0611,0.0681,0.0724,0.0815,0.0834,0.0936,0.1011,0.1042,0.1074,0.1115,0.114,0.1169,0.1159,0.1191,0.1179,0.118,0.1136,0.1126,0.1115,0.1113,0.1148,0.1148,0.1149,0.1149,0,0.0408,0.0421,0.0489,0.0549,0.0612,0.0646,0.0693,0.0759,0.081,0.0933,0.0935,0.1016,0.109,0.111,0.1121,0.1138,0.1122,0.1076,0.1082,0.1085,0.1042,0.1017,0.1011,0,0,0,0,0,0.0365,0.0381,0.0423,0.0488,0.0543,0.0589,0.0663,0.0713,0.0818,0.082,0.0887,0.0924,0.0982,0.1017,0.1023,0.1095,0.112,0.1097,0.1068,0.1134,0.1137,0.1093,0,0,0,0,0,0,0.0337,0.0366,0.04,0.0431,0.0467,0.0525,0.0569,0.0636,0.0646,0.0753,0.0783,0.0878,0.0937,0.0975,0.1007,0.1024,0.0989,0.1162,0.116,0.1132,0.1135,0.1137,0.1094,0,0,0,0,0]},{"header":{"parameterUnit":"m.s-1","parameterCategory":2,"la1":30.2991,"la2":30.254,"lo1":-89.0895,"lo2":-89.0444,"dy":0.0017,"dx":0.0017,"nx":28,"ny":28,"refTime":"2025-05-28T21:00:00:Z","depth":"4","parameterNumber":3,"parameterNumberName":"V-component_of_CURRENTS"},"data":[0,0,0,0,0,0,0,0,0,0,0,0,0,0,0,0,0,0,0,0,0,0,0,0,0,0,0,0,0,0,0,0,0,0,0,0,0,0,0,0,0,0,0,0,0,0,0,0,0,0,0,0,0,0,0,0,0,0,-0.0119,-0.0119,0,-0.0172,-0.0173,-0.0174,-0.0232,-0.0232,-0.0233,-0.0233,-0.0338,-0.034,-0.0342,0,0,0,0,0,0,0,0,0,0,0,0,0,-0.0089,-0.0089,-0.0118,-0.0119,-0.0119,-0.0172,-0.0173,-0.0174,-0.0231,-0.0232,-0.0233,-0.0234,-0.0337,-0.034,-0.0342,0,0,0,0,0,0,0,0,0,0,0,0,0,-0.012,-0.0089,-0.0118,-0.0153,-0.0157,-0.0172,-0.0173,-0.0174,-0.0231,-0.0232,-0.0233,-0.0234,-0.0336,-0.034,-0.0343,-0.0343,0,0,-0.0353,-0.0354,0,0,0,0,0,0,0,0,-0.0118,-0.0121,-0.0147,-0.0151,-0.0155,-0.0195,-0.0201,-0.0233,-0.0231,-0.0205,-0.0233,-0.0235,-0.0293,-0.03,-0.031,-0.0348,-0.0353,-0.0353,-0.0355,-0.0356,-0.0357,0,0,0,0,0,0,0,-0.0116,-0.0119,-0.0142,-0.0148,-0.0152,-0.0174,-0.0179,-0.0207,-0.0245,-0.0207,-0.0211,-0.0214,-0.0296,-0.0306,-0.0313,-0.0354,-0.0353,-0.0356,-0.0358,-0.0359,-0.0469,-0.0469,0,0,0,0,0,0,-0.0103,-0.0117,-0.014,-0.0143,-0.0136,-0.0173,-0.018,-0.0182,-0.0244,-0.0253,-0.0213,-0.0216,-0.03,-0.0309,-0.0316,-0.0391,-0.0356,-0.0359,-0.0361,-0.0468,-0.0469,-0.047,0,0,0,0,0,0,-0.0102,-0.0104,-0.0138,-0.013,-0.0135,-0.0172,-0.0175,-0.0183,-0.0216,-0.0247,-0.0258,-0.0241,-0.0301,-0.0312,-0.0366,-0.0393,-0.0361,-0.0364,-0.0466,-0.0468,-0.0469,-0.0495,0,0,0,0,0,0,-0.0101,-0.0104,-0.0115,-0.0129,-0.0135,-0.0165,-0.0174,-0.0183,-0.0214,-0.022,-0.0275,-0.0284,-0.0303,-0.0361,-0.0369,-0.0397,-0.0366,-0.0465,-0.0467,-0.0469,-0.0493,-0.0497,-0.0501,0,0,0,0,0,-0.01,-0.0108,-0.0115,-0.0119,-0.0145,-0.0166,-0.0173,-0.0203,-0.0215,-0.0236,-0.0274,-0.0283,-0.0378,-0.0365,-0.0374,-0.0403,-0.0464,-0.0467,-0.0469,-0.0491,-0.0496,-0.0501,0,0,0,0,0,0,-0.0108,-0.0115,-0.0123,-0.0136,-0.0157,-0.0176,-0.0199,-0.0212,-0.0257,-0.0271,-0.0298,-0.0311,-0.037,-0.0379,-0.0363,-0.0439,-0.0422,-0.0426,-0.0436,-0.0441,-0.0445,-0.0445,-0.0369,0,0,0,0,0,-0.011,-0.0119,-0.0131,-0.0146,-0.0156,-0.018,-0.0196,-0.0216,-0.0247,-0.0269,-0.0307,-0.0345,-0.0381,-0.0405,-0.0441,-0.0479,-0.0479,-0.0503,-0.0507,-0.051,-0.0516,-0.055,-0.0557,-0.0477,-0.0477,-0.0477,0,0,-0.0117,-0.0124,-0.013,-0.0149,-0.0169,-0.0181,-0.0194,-0.0226,-0.0246,-0.0273,-0.0329,-0.0367,-0.0396,-0.0446,-0.0472,-0.046,-0.0526,-0.0513,-0.0515,-0.052,-0.0553,-0.056,-0.0567,-0.0478,-0.0478,-0.0478,0,0,-0.0117,-0.0143,-0.0141,-0.016,-0.0187,-0.0203,-0.0214,-0.0248,-0.0279,-0.0324,-0.0354,-0.0409,-0.0457,-0.0491,-0.0509,-0.0553,-0.055,-0.0563,-0.0582,-0.0615,-0.0622,-0.0628,-0.0608,-0.0612,-0.056,-0.0561,-0.0561,0,-0.0125,-0.013,-0.0148,-0.0152,-0.0174,-0.0211,-0.0221,-0.0252,-0.0304,-0.0336,-0.0347,-0.0438,-0.0476,-0.0528,-0.0554,-0.0563,-0.0563,-0.0562,-0.062,-0.0626,-0.0632,-0.0611,-0.0615,-0.0562,-0.0562,-0.0562,-0.0562,0,-0.0107,-0.0131,-0.014,-0.0155,-0.0176,-0.0207,-0.0237,-0.0281,-0.0322,-0.0353,-0.0428,-0.0477,-0.0529,-0.0553,-0.0573,-0.0636,-0.0614,-0.0624,-0.0607,-0.0642,-0.0616,-0.062,-0.0564,-0.0564,-0.0563,-0.0563,0,0,-0.0071,-0.0118,-0.0123,-0.0149,-0.0191,-0.0209,-0.0249,-0.03,-0.0327,-0.0397,-0.0434,-0.0524,-0.0559,-0.0582,-0.0615,-0.0655,-0.07,-0.0664,-0.0665,-0.0641,-0.0738,-0.0681,-0.0679,-0.0726,-0.0727,-0.0729,-0.0693,0,-0.0061,-0.0084,-0.0102,-0.0143,-0.017,-0.022,-0.0247,-0.0299,-0.0346,-0.0395,-0.0466,-0.0519,-0.0563,-0.0594,-0.0644,-0.0693,-0.0717,-0.0707,-0.0711,-0.071,-0.0654,-0.0686,-0.0734,-0.0696,-0.0696,-0.0697,-0.0698,0,-0.0034,-0.0061,-0.0102,-0.0163,-0.0175,-0.0211,-0.0276,-0.0308,-0.0377,-0.0402,-0.0467,-0.0506,-0.0589,-0.0612,-0.0701,-0.0694,-0.0724,-0.075,-0.0749,-0.0694,-0.0663,-0.0661,-0.0705,-0.0704,-0.0704,-0.0703,-0.0703,0,-0.0027,-0.0066,-0.0114,-0.0136,-0.0195,-0.0241,-0.0289,-0.0343,-0.0367,-0.0432,-0.0436,-0.0519,-0.0558,-0.0629,-0.0688,-0.0706,-0.0754,-0.0775,-0.0738,-0.0731,-0.0779,-0.0774,-0.083,-0.083,-0.083,-0.083,-0.083,0,-0.0037,-0.0082,-0.0131,-0.0171,-0.0208,-0.0263,-0.0307,-0.0348,-0.0398,-0.0394,-0.0465,-0.0453,-0.0573,-0.0604,-0.0668,-0.0701,-0.0734,-0.0743,-0.0732,-0.0785,-0.0781,-0.078,-0.0774,-0.0828,-0.0829,-0.0829,-0.0829,0,-0.0077,-0.0103,-0.0152,-0.0211,-0.0223,-0.0275,-0.0325,-0.0335,-0.0391,-0.0383,-0.0403,-0.0436,-0.0463,-0.0535,-0.0617,-0.0656,-0.0703,-0.0699,-0.0707,-0.0696,-0.0659,-0.0656,-0.0666,-0.0664,-0.0663,-0.0661,-0.066,0,-0.0128,-0.0157,-0.0175,-0.0172,-0.0223,-0.0277,-0.0278,-0.0338,-0.0321,-0.0341,-0.0314,-0.0355,-0.0362,-0.041,-0.0516,-0.0599,-0.062,-0.0635,-0.0707,-0.0661,-0.0649,-0.0648,-0.0647,-0.0657,-0.0657,-0.0657,-0.0656,0,-0.0202,-0.0195,-0.0206,-0.0184,-0.0196,-0.0186,-0.021,-0.0197,-0.0217,-0.0247,-0.0206,-0.0255,-0.0265,-0.0349,-0.0406,-0.0479,-0.0634,-0.0618,-0.0624,-0.0691,-0.0651,-0.064,-0.0641,-0.065,-0.0651,-0.0652,-0.0652,0,-0.0227,-0.0223,-0.0184,-0.0177,-0.0156,-0.0115,-0.0133,-0.0099,-0.0102,-0.0118,-0.0089,-0.0146,-0.0188,-0.0281,-0.0337,-0.0402,-0.0443,-0.0483,-0.0497,-0.0505,-0.0488,-0.0414,-0.0334,0,0,0,0,0,-0.0238,-0.0186,-0.0168,-0.0122,-0.0104,-0.0098,-0.0062,-0.0068,-0.0067,-0.0011,-0.006,-0.0058,-0.0154,-0.0206,-0.0257,-0.0336,-0.0474,-0.0402,-0.0532,-0.0618,-0.0625,-0.0631,0,0,0,0,0,0,-0.0199,-0.0164,-0.0145,-0.008,-0.0059,-0.0024,-0.0012,-0.0014,0.0022,0.001,-0.0026,-0.0074,-0.016,-0.0118,-0.0258,-0.0285,-0.0374,-0.0458,-0.0459,-0.0614,-0.062,-0.0626,-0.0634,0,0,0,0,0]}]]